STARLINK-33840

Last updated on Thu May 29 2025 00:02:04 GMT+0000 (Coordinated Universal Time)

1 63682U 25085U 25148.44842922 .00014488 00000+0 35425-3 0 9996 2 63682 43.0001 203.7440 0001760 279.4090 80.6568 15.40629984 5220
UTC large
Height (km)
Speed (km/s)
/
Latitude / Longitude
Inclination (degrees)
Orbital Period (minutes)
Azimuth
Elevation
Range (km)
Doppler Factor

Next 0 passes for location: London (51.5072 / 0.1276)

Sorry there are no passes over London.